Flag Weather past 2 weeks in Kuala Lumpur, Malaysia

Now
81 °F

Broken clouds.


Feels Like: 87 °F
Forecast: 74 / 87 °F
Wind: 1 mph from Southeast

Location: Sultan Abdul Aziz Shah-Subang

Current Time: Nov 26, 2014 at 12:42:55 PM

Latest Report: Nov 26, 2014 at 9:00 AM


Visibility: N/A

Pressure: 29.83 "Hg

Humidity: 89%

Dew point: 77 °F

Location of Kuala LumpurLocation

Historic Weather in Kuala Lumpur — Graph

°F

Kuala Lumpur temperature yesterday

Maximum temperature yesterday: 90 °F (at 12:00 PM)
Minimum temperature yesterday: 77 °F (at 12:00 AM)
Average temperature yesterday: 82 °F

Past Weeks' High & Low Weather Summary

 TemperatureHumidityPressure
High93 °F (Nov 11, 2:00 PM)100% (Nov 13, 3:00 AM)29.92 "Hg (Nov 13, 3:00 AM)
Low73 °F (Nov 15, 7:00 AM)52% (Nov 19, 12:00 PM)29.71 "Hg (Nov 16, 3:00 PM)
Average81 °F85%29.81 "Hg
* Reported Nov 11 9:00 AM — Nov 26 9:00 AM, Kuala Lumpur, Weather by CustomWeather, © 2014

Note: Actual official high and low records may vary slightly from our data, if they occured in-between our weather recording intervals... More about our weather records

Advertising

Kuala Lumpur weather history for previous 24 hours

 ConditionsComfort  
Time TempWeatherWind HumidityBarometerVisibility
9:00 AM
Nov 26
81 °FBroken clouds.1 mph89%29.83 "HgN/A
8:00 AM79 °FBroken clouds.No wind94%29.80 "Hg5 mi
7:00 AM77 °FPartly cloudy.2 mph100%29.77 "Hg6 mi
6:00 AM77 °FPassing clouds.2 mph100%29.74 "Hg4 mi
5:00 AM79 °FPartly cloudy.No wind94%29.74 "Hg5 mi
4:00 AM79 °FPartly cloudy.1 mph94%29.74 "Hg4 mi
3:00 AM79 °FPartly cloudy.1 mph94%29.77 "Hg4 mi
2:00 AM79 °FPartly cloudy.2 mph94%29.77 "Hg4 mi
1:00 AM79 °FPartly cloudy.3 mph100%29.80 "Hg4 mi
12:00 AM81 °FPartly cloudy.1 mph89%29.80 "Hg5 mi
11:00 PM
Nov 25
81 °FPartly cloudy.No wind89%29.80 "Hg5 mi
10:00 PM81 °FPartly cloudy.2 mph89%29.80 "Hg6 mi
9:00 PM82 °FPassing clouds.3 mph84%29.74 "Hg6 mi
8:00 PM82 °FPassing clouds.5 mph84%29.74 "HgN/A
7:00 PM84 °FPartly cloudy.7 mph79%29.71 "HgN/A
6:00 PM86 °FBroken clouds.8 mph75%29.71 "HgN/A
5:00 PM86 °FBroken clouds.8 mph79%29.71 "HgN/A
4:00 PM84 °FThunderstorms. Broken clouds.7 mph84%29.71 "Hg6 mi
3:00 PM81 °FStrong thunderstorms. Broken clouds.8 mph94%29.74 "Hg2 mi
2:00 PM88 °FBroken clouds.7 mph70%29.77 "HgN/A
1:00 PM88 °FBroken clouds.5 mph70%29.80 "HgN/A
12:00 PM90 °FBroken clouds.2 mph67%29.83 "HgN/A
Weather by CustomWeather, © 2014

See weather overviewHow to use our weather pages